[[{"header":{"parameterUnit":"m.s-1","parameterCategory":1,"la1":30.2991,"la2":30.254,"lo1":-89.0895,"lo2":-89.0444,"dy":0.0017,"dx":0.0017,"nx":28,"ny":28,"refTime":"2025-05-15T09:00:00:Z","depth":0,"parameterNumber":2,"parameterNumberName":"U-component_of_WINDS"},"data":[0,0,0,0,0,0,0,0,0,0,0,0,0,0,0,0,0,0,0,0,0,0,0,0,0,0,0,0,0,0,0,0,0,0,0,0,0,0,0,0,0,0,0,0,0,0,0,0,0,0,0,0,0,0,0,0,0,0,2.2039,2.2039,0,2.2089,2.2089,2.209,2.2057,2.2055,2.2054,2.2052,2.2102,2.2105,2.2108,0,0,0,0,0,0,0,0,0,0,0,0,0,2.1912,2.1915,2.2038,2.2039,2.204,2.2089,2.2089,2.209,2.2057,2.2055,2.2053,2.2052,2.2101,2.2104,2.2108,0,0,0,0,0,0,0,0,0,0,0,0,0,2.1965,2.1915,2.2038,2.2029,2.2029,2.2088,2.2089,2.209,2.2057,2.2055,2.2053,2.2051,2.21,2.2104,2.2108,2.2179,0,0,2.2121,2.2123,0,0,0,0,0,0,0,0,2.1962,2.197,2.203,2.203,2.203,2.2064,2.2063,2.212,2.2058,2.2047,2.2052,2.205,2.2091,2.2096,2.211,2.2181,2.2183,2.2121,2.2124,2.2125,2.2127,0,0,0,0,0,0,0,2.1958,2.1967,2.2058,2.2031,2.2031,2.2022,2.2027,2.2074,2.2081,2.2047,2.2045,2.2052,2.2091,2.2106,2.2111,2.2184,2.2121,2.2125,2.2127,2.2129,2.2314,2.2316,0,0,0,0,0,0,2.1956,2.1965,2.2057,2.206,2.199,2.2026,2.2032,2.2055,2.208,2.2082,2.2053,2.205,2.21,2.2106,2.2113,2.2196,2.2125,2.2129,2.2132,2.2312,2.2315,2.2317,0,0,0,0,0,0,2.1953,2.1964,2.2055,2.2012,2.2022,2.2031,2.2058,2.2058,2.2073,2.2085,2.2086,2.2068,2.2099,2.2107,2.2162,2.2197,2.2131,2.2135,2.2309,2.2313,2.2316,2.2364,0,0,0,0,0,0,2.195,2.1964,2.1991,2.2012,2.2025,2.2104,2.206,2.206,2.208,2.2076,2.2099,2.2101,2.2098,2.2157,2.2167,2.2202,2.2138,2.2306,2.231,2.2315,2.2359,2.2369,2.2377,0,0,0,0,0,2.1945,2.2003,2.1993,2.2004,2.206,2.2106,2.2113,2.2109,2.2084,2.2111,2.2118,2.21,2.2192,2.2163,2.2174,2.2211,2.2303,2.2309,2.2314,2.2355,2.2367,2.2377,0,0,0,0,0,0,2.1985,2.2005,2.1995,2.2061,2.2082,2.2101,2.2135,2.2122,2.2151,2.2146,2.2139,2.2144,2.2202,2.2212,2.2179,2.2279,2.2244,2.2252,2.2271,2.2282,2.2291,2.2287,2.2141,0,0,0,0,0,2.2002,2.2039,2.2054,2.2111,2.2122,2.2127,2.2147,2.2142,2.2164,2.2173,2.2184,2.2205,2.2239,2.2261,2.2293,2.2361,2.2364,2.2392,2.24,2.2408,2.2414,2.2449,2.2461,2.2335,2.2335,2.2335,0,0,2.2036,2.2052,2.2075,2.2119,2.2135,2.2173,2.2135,2.2176,2.2204,2.2179,2.2231,2.2241,2.2264,2.2326,2.2353,2.2336,2.245,2.2415,2.242,2.2423,2.2456,2.2468,2.2479,2.2339,2.2339,2.2338,0,0,2.2117,2.2134,2.2182,2.2199,2.2223,2.2226,2.2238,2.2258,2.2264,2.2317,2.2298,2.233,2.2389,2.2406,2.2422,2.2509,2.2493,2.252,2.2565,2.26,2.261,2.2618,2.2648,2.2659,2.2526,2.2527,2.2527,0,2.2156,2.2213,2.2208,2.2251,2.227,2.225,2.2298,2.2314,2.2348,2.2361,2.2341,2.2413,2.2428,2.2492,2.2513,2.2528,2.254,2.2517,2.2609,2.2618,2.2626,2.2654,2.2665,2.253,2.2529,2.2529,2.2529,0,2.2259,2.2299,2.2335,2.2368,2.2391,2.2437,2.2438,2.2462,2.2455,2.246,2.2513,2.2529,2.2563,2.2579,2.2572,2.2642,2.263,2.261,2.2573,2.2641,2.2667,2.2678,2.2534,2.2533,2.2532,2.2531,0,0,2.2367,2.2397,2.241,2.2424,2.245,2.2479,2.2523,2.2557,2.2577,2.2601,2.2637,2.2686,2.2667,2.2686,2.2681,2.2711,2.2778,2.2687,2.2687,2.2702,2.2854,2.2868,2.2881,2.2767,2.277,2.2771,2.2852,0,2.2448,2.2526,2.2522,2.2594,2.263,2.261,2.2648,2.2668,2.2673,2.2703,2.2709,2.2744,2.2717,2.2727,2.2757,2.2763,2.2808,2.2758,2.2799,2.2801,2.2793,2.2895,2.291,2.2986,2.2862,2.2864,2.2865,0,2.2554,2.2581,2.2657,2.2676,2.2691,2.2725,2.2755,2.2785,2.2806,2.2808,2.2828,2.2818,2.2861,2.2825,2.2883,2.2849,2.2866,2.2872,2.2875,2.2878,2.2836,2.2899,2.301,2.302,2.2881,2.288,2.2879,0,2.2623,2.2679,2.2731,2.2744,2.2768,2.2793,2.2804,2.2823,2.2843,2.2869,2.2881,2.2912,2.2929,2.2952,2.295,2.2924,2.301,2.2973,2.3011,2.3011,2.3029,2.3028,2.3143,2.3042,2.3042,2.3042,2.3042,0,2.2714,2.276,2.2762,2.2794,2.2845,2.2841,2.2891,2.29,2.2916,2.2949,2.2934,2.2965,2.2961,2.2992,2.299,2.3039,2.3046,2.3048,2.3047,2.3049,2.3048,2.3059,2.3053,2.3045,2.3044,2.3044,2.3043,0,2.2799,2.2802,2.2857,2.2876,2.2882,2.2918,2.2934,2.2963,2.2967,2.3008,2.3018,2.3024,2.3059,2.306,2.31,2.3099,2.3157,2.3151,2.315,2.3149,2.3186,2.3182,2.331,2.3326,2.3217,2.3218,2.3219,0,2.2856,2.2891,2.2914,2.2935,2.2947,2.2981,2.3002,2.2998,2.302,2.3046,2.3072,2.3106,2.3133,2.319,2.3197,2.3227,2.3221,2.3264,2.3225,2.3225,2.322,2.3217,2.322,2.3271,2.3272,2.3273,2.3274,0,2.2957,2.2956,2.2987,2.3017,2.3042,2.3066,2.3088,2.3106,2.3105,2.313,2.3166,2.3187,2.3228,2.3261,2.329,2.33,2.3287,2.3286,2.3296,2.3298,2.3295,2.3296,2.3169,2.3283,2.3282,2.3281,2.3281,2.3281,2.3028,2.3058,2.3079,2.3113,2.3129,2.315,2.3178,2.3186,2.3216,2.3249,2.3245,2.3285,2.3304,2.3342,2.3355,2.3385,2.337,2.3385,2.3389,2.3392,2.3396,2.3292,2.3391,2.339,2.339,2.339,2.339,0,2.3127,2.3139,2.317,2.3202,2.3228,2.3214,2.3237,2.326,2.3295,2.3315,2.3341,2.3382,2.3414,2.3424,2.3454,2.3477,2.3471,2.3485,2.3482,2.3485,2.3408,2.3395,2.3488,2.3488,2.3488,2.3488,2.3488,2.3488,2.3181,2.3231,2.3233,2.329,2.3302,2.334,2.3355,2.3374,2.3389,2.3435,2.3462,2.3468,2.3484,2.3515,2.3543,2.3545,2.3557,2.3573,2.3572,2.35,2.349,2.3481,2.3469,2.3576,2.3576,2.3646,2.3647,2.3647]},{"header":{"parameterUnit":"m.s-1","parameterCategory":1,"la1":30.2991,"la2":30.254,"lo1":-89.0895,"lo2":-89.0444,"dy":0.0017,"dx":0.0017,"nx":28,"ny":28,"refTime":"2025-05-15T09:00:00:Z","depth":0,"parameterNumber":3,"parameterNumberName":"V-component_of_WINDS"},"data":[0,0,0,0,0,0,0,0,0,0,0,0,0,0,0,0,0,0,0,0,0,0,0,0,0,0,0,0,0,0,0,0,0,0,0,0,0,0,0,0,0,0,0,0,0,0,0,0,0,0,0,0,0,0,0,0,0,0,4.9797,4.9798,0,4.9914,4.9915,4.9917,4.9893,4.9891,4.9889,4.9887,5.0,5.0005,5.001,0,0,0,0,0,0,0,0,0,0,0,0,0,4.9546,4.9551,4.9797,4.9798,4.98,4.9914,4.9916,4.9917,4.9894,4.9891,4.9888,4.9886,4.9998,5.0004,5.001,0,0,0,0,0,0,0,0,0,0,0,0,0,4.9658,4.9552,4.9797,4.9802,4.9804,4.9914,4.9916,4.9918,4.9894,4.9891,4.9888,4.9885,4.9996,5.0004,5.0011,5.0121,0,0,5.0034,5.0037,0,0,0,0,0,0,0,0,4.9652,4.9667,4.98,4.9802,4.9804,4.9886,4.9868,4.9985,4.9895,4.986,4.9887,4.9883,4.9964,4.9974,5.0003,5.0126,5.0131,5.0035,5.0039,5.0042,5.0045,0,0,0,0,0,0,0,4.9644,4.9662,4.9843,4.9802,4.9804,4.9796,4.9809,4.989,4.9928,4.9862,4.9861,4.9876,4.9965,4.9996,5.0005,5.0133,5.0034,5.0041,5.0046,5.0049,5.0351,5.0354,0,0,0,0,0,0,4.9635,4.9656,4.9839,4.9847,4.9719,4.9803,4.9817,4.9863,4.9927,4.9934,4.9878,4.9874,4.9985,4.9997,5.0009,5.0142,5.0042,5.0049,5.0054,5.0348,5.0352,5.0356,0,0,0,0,0,0,4.963,4.9652,4.9835,4.9751,4.9774,4.9811,4.9862,4.9867,4.9898,4.9939,4.9945,4.9904,4.9983,4.9999,5.0094,5.0146,5.0053,5.006,5.0343,5.0349,5.0354,5.0408,0,0,0,0,0,0,4.9623,4.965,4.9694,4.9752,4.9778,4.9919,4.9866,4.9871,4.9912,4.9907,4.9965,4.9971,4.9981,5.0083,5.0101,5.0154,5.0065,5.0339,5.0346,5.0352,5.0402,5.0415,5.0426,0,0,0,0,0,4.9614,4.9703,4.9696,4.9718,4.9834,4.9922,4.9937,4.9949,4.9916,4.9959,4.9986,4.9969,5.0137,5.0093,5.0113,5.0169,5.0336,5.0344,5.0352,5.0397,5.0412,5.0426,0,0,0,0,0,0,4.9647,4.9711,4.9704,4.9815,4.9864,4.9918,4.9973,4.9965,5.0023,5.0016,5.0027,5.004,5.0136,5.0162,5.0112,5.0278,5.0231,5.0244,5.0259,5.0274,5.0285,5.0277,5.0072,0,0,0,0,0,4.9668,4.9737,4.9788,4.9881,4.9906,4.9936,4.9974,4.998,5.003,5.005,5.0083,5.013,5.0193,5.0235,5.0295,5.0406,5.0417,5.0454,5.0466,5.0475,5.0486,5.0546,5.0563,5.0382,5.0382,5.0382,0,0,4.9711,4.9754,4.9796,4.9889,4.9927,4.9996,4.9953,5.0028,5.0078,5.006,5.0153,5.0179,5.0232,5.0335,5.0382,5.0359,5.0539,5.0486,5.0493,5.0499,5.0556,5.0573,5.0588,5.0387,5.0386,5.0386,0,0,4.9824,4.9864,4.9946,4.9986,5.0046,5.0065,5.0085,5.0141,5.0158,5.0252,5.024,5.0299,5.0408,5.0446,5.048,5.0608,5.0595,5.0627,5.0689,5.0747,5.0761,5.0774,5.0819,5.0836,5.0637,5.0638,5.0638,0,4.9869,4.9975,4.9989,5.0066,5.0106,5.0095,5.0177,5.0214,5.0289,5.0316,5.029,5.0427,5.0462,5.0574,5.0606,5.0633,5.0655,5.0621,5.0759,5.0772,5.0783,5.0827,5.0844,5.0641,5.0641,5.064,5.064,0,5.0027,5.0101,5.016,5.0236,5.0282,5.0361,5.0385,5.043,5.0431,5.0452,5.0547,5.0588,5.0657,5.0684,5.0685,5.0796,5.078,5.0756,5.0709,5.0804,5.0845,5.0862,5.0646,5.0645,5.0644,5.0643,0,0,5.0165,5.0249,5.027,5.0304,5.0369,5.0425,5.0502,5.0572,5.0611,5.0662,5.0727,5.0819,5.0798,5.0837,5.0841,5.0892,5.0991,5.0862,5.0864,5.0885,5.1115,5.1133,5.1152,5.0982,5.0985,5.0988,5.111,0,5.0285,5.0425,5.0439,5.0563,5.0631,5.0621,5.0688,5.0734,5.0756,5.0814,5.0837,5.0903,5.087,5.0893,5.0943,5.0968,5.1037,5.0959,5.104,5.1043,5.1028,5.1173,5.1192,5.1306,5.1127,5.1129,5.1131,0,5.0443,5.0503,5.0634,5.069,5.0719,5.078,5.0844,5.0901,5.0952,5.0964,5.1008,5.1006,5.1083,5.1033,5.1139,5.1086,5.112,5.1137,5.1142,5.115,5.1093,5.1185,5.1343,5.136,5.1157,5.1155,5.1153,0,5.0531,5.0643,5.0737,5.0766,5.0834,5.0876,5.0906,5.0954,5.0995,5.1051,5.1077,5.114,5.1175,5.1222,5.1237,5.1199,5.1342,5.1293,5.1353,5.1353,5.1384,5.1382,5.1549,5.1405,5.1405,5.1405,5.1404,0,5.0663,5.0743,5.0777,5.0835,5.0924,5.0939,5.1026,5.1053,5.1096,5.1157,5.1151,5.1208,5.1223,5.1282,5.1293,5.1379,5.1394,5.1405,5.1407,5.1406,5.1405,5.1428,5.1421,5.1409,5.1408,5.1407,5.1407,0,5.0776,5.0802,5.0903,5.0959,5.0975,5.1039,5.1085,5.1139,5.116,5.1237,5.1256,5.1288,5.1357,5.1376,5.1458,5.1465,5.1566,5.1561,5.155,5.155,5.1609,5.1603,5.1797,5.1823,5.1663,5.1664,5.1665,0,5.0859,5.0921,5.0984,5.1026,5.1058,5.1125,5.1168,5.1183,5.1227,5.129,5.1337,5.1405,5.1461,5.1571,5.16,5.1663,5.1658,5.1722,5.1668,5.1664,5.1659,5.1656,5.1662,5.1732,5.1734,5.1735,5.1737,0,5.1003,5.1013,5.1075,5.1143,5.1194,5.1248,5.1298,5.1332,5.1355,5.1404,5.1476,5.152,5.1604,5.1672,5.1735,5.1763,5.1753,5.1754,5.1771,5.177,5.1762,5.1767,5.1578,5.1749,5.1748,5.1747,5.1746,5.1746,5.1103,5.1158,5.1212,5.1282,5.1322,5.137,5.1424,5.1453,5.1514,5.1586,5.1591,5.1668,5.1716,5.1801,5.1832,5.1891,5.1872,5.1897,5.1903,5.1909,5.1914,5.1752,5.1903,5.1902,5.1902,5.1902,5.1901,0,5.1247,5.1281,5.1346,5.1419,5.1473,5.1462,5.1517,5.1563,5.1633,5.168,5.1735,5.1817,5.1883,5.1918,5.1982,5.2023,5.202,5.2039,5.2036,5.2043,5.1928,5.1907,5.2041,5.2041,5.2041,5.2041,5.2041,5.204,5.1328,5.1421,5.1437,5.1549,5.1582,5.1661,5.1693,5.1737,5.1774,5.1867,5.1923,5.1946,5.1987,5.2055,5.2114,5.2122,5.2146,5.2168,5.2173,5.2065,5.2051,5.2037,5.2018,5.2173,5.2173,5.2284,5.2285,5.2286]}]]